Home   Weather   Sarh   Past weeks

Flag for Chad Past Weather in Sarh, Chad — Yesterday and Last 2 Weeks

Now
90 °F

Sunny.


Feels Like: 86 °F
Forecast: 62 / 96 °F
Wind: 12 mph from East

Location: Sarh Airport

Current Time: Dec 9, 2016 at 11:03:51 am

Latest Report: Dec 9, 2016 at 10:00 am


Visibility: 10 mi

Pressure: 29.98 "Hg

Humidity: 16%

Dew Point: 37 °F

Location of SarhLocation

Past Weather in Sarh — Graph

°F

Sarh Temperature Yesterday

Maximum temperature yesterday: 100 °F (at 2:00 pm)
Minimum temperature yesterday: 70 °F (at 5:00 am)
Average temperature yesterday: 82 °F

High & Low Weather Summary for the Past Weeks

 TemperatureHumidityPressure
High102 °F (Nov 26, 1:00 pm)94% (Nov 28, 7:00 am)29.98 "Hg (Nov 28, 7:00 am)
Low64 °F (Dec 9, 4:00 am)11% (Nov 25, 2:00 pm)29.74 "Hg (Nov 26, 2:00 pm)
Average85 °F49%29.87 "Hg
* Reported Nov 24 9:00 am — Dec 9 9:00 am, Sarh, Weather by CustomWeather, © 2016

Note: Actual official high and low records may vary slightly from our data, if they occured in-between our weather recording intervals... More about our weather records

Advertising

Sarh Weather History for the Previous 24 Hours

Scroll right to see more
 ConditionsComfort  
Time TempWeatherWind HumidityBarometerVisibility
9:00 am
Fri, Dec 9
84 °FSunny.7 mph22%29.98 "Hg10 mi
7:00 am66 °FSunny.No wind64%29.95 "Hg10 mi
6:00 am64 °FSunny.No wind68%29.92 "Hg10 mi
5:00 am64 °FClear.No wind73%29.89 "Hg10 mi
4:00 am64 °FClear.No wind68%29.89 "Hg10 mi
3:00 am68 °FClear.5 mph64%29.89 "Hg10 mi
1:00 am68 °FClear.No wind73%29.89 "Hg10 mi
12:00 am70 °FClear.No wind69%29.89 "Hg10 mi
11:00 pm
Thu, Dec 8
72 °FClear.No wind53%29.89 "Hg10 mi
10:00 pm75 °FClear.No wind44%29.89 "Hg10 mi
9:00 pm77 °FClear.No wind44%29.89 "Hg10 mi
8:00 pm77 °FClear.No wind47%29.89 "Hg10 mi
7:00 pm82 °FClear.No wind40%29.89 "Hg10 mi
6:00 pm91 °FClear.No wind26%29.86 "Hg10 mi
5:00 pm95 °FSunny.5 mph26%29.86 "Hg10 mi
4:00 pm99 °FSunny.5 mph14%29.83 "Hg10 mi
3:00 pm100 °FSunny.9 mph11%29.83 "Hg10 mi
2:00 pm100 °FSunny.9 mph11%29.86 "Hg10 mi
12:00 pm97 °FSunny.7 mph20%29.95 "Hg10 mi
11:00 am95 °FSunny.9 mph28%29.95 "Hg10 mi
Weather by CustomWeather, © 2016

See weather overviewHow to use our weather pages